RH
98 98 98 98 90 92 90 88 89 87 85 82 75 75 76 81 82 86 84 79 72 74 69 67 60 57 68 69 68 71 74 83 85 73 69 63 62 58 56 55 55 54 55
98 99 100 98 95 93 94 88 82 81 76 74 79 81 79 74 73 77 81 78 71 68 61 61 60 67 71 78 84 85 86 84 88 82 76 76 72 64 62 63 61 61 61
97 100 100 100 99 98 94 88 86 78 77 78 80 79 80 82 83 76 70 72 74 74 79 82 85 83 81 84 86 87 86 87 90 92 82 78 79 76 74 75 75 76 76
90 94 100 100 98 97 97 94 88 82 80 79 80 82 81 79 79 81 83 81 79 77 75 74 77 82 82 82 85 84 86 89 91 95 92 88 87 86 85 89 90 84 84
93 95 96 100 99 99 100 98 98 98 93 88 82 81 83 81 79 77 80 84 84 84 82 80 80 79 78 79 80 81 86 90 90 89 90 89 86 91 97 90 99 92 90
84 89 92 93 97 100 100 100 99 97 98 98 97 93 91 85 83 82 79 77 78 82 84 84 83 80 79 80 81 80 75 85 93 88 85 82 82 84 89 97 94 97 96
88 88 91 93 92 93 92 92 100 100 99 100 99 97 95 93 87 82 83 87 84 82 82 81 81 83 86 88 86 84 86 86 82 81 86 86 88 87 88 98 100 93 94
87 86 88 90 90 93 95 97 96 97 97 99 100 99 98 95 92 90 89 91 96 90 87 87 87 85 86 90 96 99 95 95 95 94 97 95 94 97 96 98 100 100 100
88 87 88 90 90 91 95 99 98 100 100 99 99 97 100 99 96 96 93 96 100 99 97 95 92 93 91 87 88 93 96 100 100 100 100 100 100 100 100 100 100 100 99
92 92 93 95 96 96 99 100 100 100 100 100 99 100 100 100 100 100 100 100 100 99 99 98 98 98 96 93 93 97 100 100 100 100 99 99 100 100 100 100 100 99 97
93 94 94 99 97 99 100 100 99 100 100 100 100 100 99 99 99 99 99 99 100 100 100 100 100 99 98 99 100 100 100 99 99 98 100 100 99 96 97 99 98 96 97
95 96 96 98 99 100 100 100 100 100 100 100 99 100 98 100 100 100 100 100 100 100 98 100 99 100 99 99 96 96 97 99 96 96 97 99 96 97 97 95 96 95 94
95 98 95 98 98 97 97 98 99 98 98 98 98 99 100 100 98 99 100 100 100 99 100 99 99 100 99 100 100 97 96 95 95 96 97 97 96 96 96 96 97 95 94
96 99 98 94 96 99 97 97 98 97 94 94 94 97 98 100 100 98 100 100 100 98 95 97 98 98 97 96 94 98 96 96 97 97 98 95 96 95 95 95 95 96 94
97 97 96 98 99 97 100 100 100 100 100 99 100 99 95 96 100 99 97 97 97 97 96 95 97 96 97 96 97 97 96 95 95 96 96 96 96 95 96 93 95 95 96
98 100 100 99 97 98 98 100 100 100 100 100 100 98 100 100 99 98 97 96 96 96 95 96 96 96 96 97 97 98 96 96 96 96 96 96 99 98 96 91 83 92 89
100 100 100 100 100 100 99 100 99 97 100 100 100 100 100 100 100 100 98 97 96 92 96 96 96 97 97 97 98 98 100 97 90 91 92 93 93 94 96 94 92 89 87
94 94 94 96 98 97 99 100 100 100 100 100 100 100 100 100 100 98 94 91 93 96 97 98 99 99 98 99 100 99 94 89 89 88 87 85 86 91 97 96 95 90 91
96 95 91 92 93 93 92 94 95 97 100 100 96 94 98 100 100 100 97 96 100 100 99 98 98 98 98 95 93 91 89 89 85 79 79 80 81 85 90 84 84 81 83
94 95 91 89 89 90 90 94 96 100 100 100 100 100 86 74 88 96 94 95 96 97 95 95 93 90 92 91 88 88 89 88 86 84 84 86 87 88 89 86 82 82 86
91 92 90 92 95 95 97 100 99 100 100 100 100 98 93 94 100 98 98 96 94 92 91 91 91 92 92 88 86 86 86 86 84 80 80 84 86 87 90 84 78 76 83
88 92 93 96 93 92 94 92 94 98 97 98 92 86 80 87 91 90 90 89 86 84 82 81 85 89 91 91 91 86 86 84 81 80 77 73 71 80 85 82 79 89 92
85 87 91 93 91 86 87 92 92 91 92 87 83 84 86 92 95 96 96 96 94 92 89 86 84 83 84 84 88 90 87 89 87 82 73 70 73 81 88 86 92 91 86
83 85 89 91 90 91 91 94 95 95 95 94 93 94 92 92 91 90 97 99 98 98 97 94 92 92 98 98 96 90 87 85 85 82 78 75 78 82 87 94 96 90 92
84 84 87 89 89 90 90 92 92 94 95 94 96 96 96 95 94 93 94 99 100 98 96 96 97 97 96 93 90 88 89 91 88 85 77 77 85 95 98 98 94 95 93
81 84 84 82 85 88 89 89 89 89 93 95 95 94 95 94 98 95 89 83 84 92 96 99 99 98 95 92 95 96 95 93 91 87 85 87 94 98 97 100 100 98 95
Wind_Speed
18 19 20 23 28 27 28 27 31 28 28 26 31 34 35 36 40 38 39 39 42 41 42 41 42 42 38 39 41 39 37 31 19 29 31 37 36 39 41 43 44 45 46
22 22 22 26 25 29 29 30 31 36 33 32 32 32 34 37 39 40 39 38 42 41 42 43 45 40 41 39 35 35 34 33 27 26 32 33 38 45 47 47 49 49 50
21 22 22 26 26 26 27 29 31 35 37 37 38 41 40 38 35 38 41 39 39 41 40 41 39 38 42 37 33 34 34 35 32 29 33 34 34 37 41 42 44 45 48
17 26 25 26 29 30 31 32 33 34 34 36 38 39 38 39 42 42 40 41 41 41 41 44 42 40 43 39 38 39 38 33 30 28 31 34 29 31 36 35 33 38 43
19 10 3 20 25 28 29 32 33 33 37 37 37 39 39 40 42 41 42 42 41 41 41 43 44 45 47 48 42 41 38 34 34 32 30 31 30 26 27 34 32 36 35
21 18 13 15 14 7 21 27 31 34 34 33 35 36 36 41 44 46 47 42 44 43 43 44 45 47 51 54 54 55 49 38 36 34 33 30 33 33 33 34 32 23 9
20 19 20 17 14 13 11 11 10 23 29 31 34 36 39 41 44 49 51 50 44 42 44 44 43 43 47 47 50 57 57 57 57 47 40 38 37 35 34 28 33 33 29
19 19 19 19 17 17 15 14 16 17 16 16 25 33 38 42 48 51 50 51 46 46 45 45 44 44 44 43 43 40 48 54 60 62 57 47 45 38 36 32 28 20 9
20 20 19 19 16 15 14 16 19 19 21 23 24 29 29 38 42 47 48 46 43 48 48 47 46 46 49 49 47 43 46 41 35 35 35 31 26 25 21 27 20 19 4
19 19 18 17 14 15 16 17 16 15 16 18 21 14 14 18 16 24 35 36 38 41 42 37 38 47 43 45 50 41 32 21 19 18 17 17 15 14 11 13 15 13 12
18 19 22 24 18 17 16 16 18 20 17 16 15 17 20 29 23 24 19 22 27 26 20 14 12 16 20 24 25 26 20 28 25 26 26 26 28 29 29 26 23 20 18
16 17 21 23 21 21 22 22 21 19 18 18 19 21 26 28 34 32 20 10 2 11 22 24 28 28 29 27 30 34 34 29 33 29 27 23 27 27 28 27 24 26 27
13 15 19 22 25 23 26 25 22 21 20 19 19 19 21 24 27 29 35 35 36 39 32 29 27 30 39 37 33 38 34 35 29 29 22 23 24 21 21 22 19 21 22
13 15 16 21 25 29 26 28 28 23 22 22 21 21 22 25 26 26 27 27 30 33 34 33 36 37 39 40 35 31 37 32 25 25 24 24 18 22 21 18 17 16 19
16 16 18 18 18 23 34 31 31 37 30 26 28 30 26 28 31 31 30 28 27 28 29 34 31 33 31 31 30 30 31 31 29 24 22 23 21 21 19 16 15 15 15
13 16 18 19 19 19 17 22 33 34 35 34 31 29 33 30 30 30 29 28 27 30 31 29 25 27 23 26 24 26 30 27 23 24 22 20 16 15 16 16 16 16 13
14 14 17 18 17 18 20 18 15 20 29 33 32 31 30 27 27 26 27 29 29 31 30 26 23 24 23 22 22 21 23 22 20 21 19 17 16 15 14 15 14 12 12
21 20 22 22 21 22 22 23 21 20 19 22 26 28 28 28 27 24 23 24 32 31 27 23 22 21 22 21 20 20 21 21 20 19 18 16 15 13 12 13 11 11 9
20 20 20 21 21 21 21 22 22 22 20 20 22 24 23 23 26 27 27 30 24 23 22 23 21 20 20 20 20 19 19 20 17 17 16 15 13 11 12 12 11 10 10
18 18 19 20 20 20 20 20 20 19 19 21 22 21 20 22 29 28 28 26 25 23 21 20 19 17 16 16 16 16 15 14 13 14 13 12 11 11 11 11 10 10 11
16 16 15 17 18 18 18 18 19 18 18 20 21 19 20 24 23 23 22 22 20 19 17 16 15 15 15 14 14 14 13 13 12 12 11 10 8 9 8 8 9 9 9
13 14 15 16 16 18 17 16 17 18 18 18 18 18 18 21 21 21 19 18 17 16 15 14 14 14 14 12 11 10 11 11 11 11 10 8 8 6 7 7 7 8 9
13 13 14 14 15 15 17 17 18 18 18 17 17 17 18 18 18 17 16 14 14 14 14 13 13 12 11 10 9 9 10 12 12 13 12 9 6 4 5 6 7 7 9
12 13 14 14 14 15 15 15 15 14 14 14 13 14 14 13 13 13 12 10 9 9 9 11 12 11 10 10 10 11 12 12 12 11 10 9 6 5 5 4 4 6 7
13 13 14 14 13 13 13 13 13 11 11 10 10 9 8 8 9 10 9 7 6 6 8 9 9 8 8 8 10 10 10 10 12 12 10 7 5 3 3 3 5 6 7
11 11 11 11 11 10 9 9 9 8 7 6 6 5 5 6 7 7 8 7 6 6 7 6 6 6 8 10 10 8 11 13 13 12 7 4 2 3 3 3 4 6 8
Wind_Direction
198 203 211 213 221 224 226 220 213 213 212 211 214 216 212 212 215 217 218 223 224 227 233 236 240 244 244 247 250 247 244 238 244 259 260 266 265 266 266 267 267 265 266
206 207 210 217 219 222 226 230 229 226 226 229 232 230 228 225 223 222 223 226 231 234 238 241 243 245 246 245 244 243 242 244 240 250 258 260 262 267 269 270 271 270 271
209 209 214 218 218 219 222 229 233 234 239 242 239 235 234 234 231 234 236 235 236 238 238 238 238 239 243 244 244 246 250 250 245 247 257 260 260 265 267 266 264 267 269
227 217 214 218 222 224 226 231 233 235 237 240 243 239 235 236 237 238 238 240 240 239 238 241 240 237 241 243 242 244 246 245 245 245 251 258 258 261 262 260 263 266 267
74 78 300 232 228 229 228 230 230 230 235 234 236 240 240 239 239 239 239 240 242 242 241 241 242 242 243 243 240 244 244 242 245 247 248 251 255 245 239 249 246 254 257
49 40 27 47 54 275 243 233 233 234 235 231 232 232 233 238 242 242 240 240 241 241 242 243 244 245 246 248 249 247 245 240 240 245 250 254 254 251 246 241 245 243 254
42 33 25 19 15 2 340 356 285 249 244 236 235 235 236 239 243 244 245 243 242 242 243 244 244 243 244 244 246 248 248 248 247 248 252 251 254 249 249 241 235 243 246
34 31 21 14 8 357 353 346 332 318 310 304 265 247 244 246 248 249 246 243 240 243 244 244 244 246 244 241 242 243 246 245 245 246 250 257 259 258 250 251 247 212 158
29 26 14 8 3 0 355 344 339 333 326 320 309 298 295 259 256 256 255 245 239 240 243 244 244 244 243 241 237 236 238 237 242 248 249 252 251 253 248 242 194 164 106
21 22 18 14 14 6 353 347 343 343 331 333 335 329 328 314 287 266 256 247 241 241 244 246 250 247 246 245 238 231 216 195 159 132 118 108 106 105 126 153 151 107 117
27 27 24 24 21 15 9 8 10 5 10 19 19 17 18 23 3 351 300 265 248 255 233 232 248 265 264 262 249 231 178 145 121 114 91 75 80 85 75 70 81 88 84
39 37 34 31 30 26 25 25 29 30 34 33 36 35 35 37 33 35 33 21 264 121 73 74 78 76 93 106 107 103 105 92 96 86 69 63 73 67 69 78 76 79 85
55 50 45 43 40 39 38 33 35 38 42 39 40 38 32 29 38 42 49 66 80 82 76 81 74 65 82 66 85 104 105 102 97 84 72 72 75 71 82 80 80 83 79
54 50 54 56 53 49 51 48 47 45 52 52 47 46 44 40 39 45 49 58 68 78 88 79 76 81 73 84 79 66 87 87 81 84 87 91 83 78 64 63 69 67 73
51 49 52 52 57 61 59 56 57 55 60 65 64 60 54 50 48 55 56 53 63 77 71 70 57 58 58 58 58 65 72 75 75 70 70 70 69 67 62 62 65 70 71
62 53 53 53 54 55 59 62 58 59 58 59 61 75 75 67 60 60 62 69 71 76 67 61 56 62 59 64 58 57 60 62 64 71 69 71 66 70 69 63 64 64 63
72 71 68 66 60 56 55 54 52 60 57 53 53 55 58 70 74 68 68 70 65 74 64 57 55 57 58 58 64 63 68 71 71 69 72 67 65 62 62 59 51 49 54
81 81 80 76 71 70 64 57 52 45 44 43 49 50 51 56 58 70 83 81 64 62 60 57 58 59 64 67 67 68 74 75 74 75 70 68 70 66 57 59 57 54 47
73 74 77 76 73 72 71 67 64 58 50 46 45 51 58 56 59 58 68 72 68 62 64 66 68 69 74 79 79 79 78 75 73 72 68 64 63 69 65 61 54 45 40
76 76 77 79 77 74 72 71 65 60 54 49 43 40 50 63 59 55 62 66 69 71 73 73 72 73 75 76 78 78 78 77 71 66 65 65 64 64 58 54 46 37 30
75 76 78 77 76 77 75 70 71 68 63 58 57 58 63 68 65 66 65 68 71 72 75 79 79 78 77 76 78 80 80 73 62 54 52 51 48 52 48 38 33 28 24
78 79 78 78 80 77 77 78 79 77 74 72 68 65 70 75 73 72 72 72 72 71 70 71 71 68 66 66 63 60 57 47 40 34 27 20 17 17 20 23 27 30 30
77 82 82 81 84 86 83 81 81 82 81 79 77 73 70 73 73 70 71 72 72 70 68 63 58 55 54 56 55 49 38 27 16 6 3 9 16 16 22 27 26 20 14
75 79 81 82 84 85 84 82 82 83 85 86 82 79 74 70 67 64 62 63 64 63 50 43 41 45 52 50 40 25 19 12 8 2 2 3 2 359 1 4 355 351 356
75 78 80 82 84 87 88 84 82 82 81 76 73 69 64 58 53 48 43 38 28 15 15 20 27 35 33 23 13 11 12 5 355 349 338 330 329 324 310 316 332 343 349
77 78 78 77 77 76 77 78 75 71 67 60 55 54 44 29 25 14 3 348 338 345 354 0 6 4 353 353 358 0 353 349 347 344 344 337 295 266 282 308 332 341 344